QPF
0.02 0.02 0.02 0.02 0.01 0.01 0.02 0.02 0.02 0.02 0.01 0.01 0.01 0.01 0.01 0.01 0.02 0.02 0.02 0.02 0.02 0.03 0.06 0.06 0.05 0.05 0.04 0.03 0.03 0.02 0.01 0.01 0.01 0.01 0.01 0.00 0.01 0.01 0.01 0.01 0.01 0.01 0.01
0.02 0.02 0.02 0.02 0.02 0.02 0.01 0.01 0.02 0.02 0.01 0.01 0.01 0.01 0.01 0.01 0.01 0.01 0.02 0.03 0.03 0.03 0.05 0.06 0.07 0.07 0.05 0.05 0.04 0.02 0.02 0.02 0.02 0.01 0.01 0.01 0.00 0.01 0.01 0.01 0.01 0.01 0.01
0.02 0.02 0.02 0.01 0.02 0.03 0.03 0.03 0.03 0.03 0.02 0.01 0.01 0.02 0.03 0.02 0.01 0.01 0.01 0.01 0.02 0.02 0.03 0.05 0.06 0.07 0.05 0.04 0.04 0.04 0.02 0.01 0.01 0.01 0.01 0.01 0.01 0.01 0.01 0.01 0.01 0.01 0.01
0.02 0.02 0.02 0.02 0.02 0.02 0.04 0.05 0.04 0.04 0.04 0.03 0.01 0.01 0.02 0.02 0.03 0.02 0.01 0.01 0.01 0.01 0.02 0.03 0.04 0.06 0.06 0.06 0.05 0.05 0.03 0.01 0.00 0.00 0.00 0.00 0.00 0.01 0.01 0.01 0.01 0.01 0.01
0.03 0.03 0.02 0.02 0.03 0.02 0.02 0.04 0.05 0.04 0.05 0.04 0.03 0.02 0.02 0.02 0.03 0.02 0.01 0.01 0.00 0.00 0.01 0.01 0.01 0.02 0.05 0.06 0.06 0.06 0.04 0.02 0.00 0.00 0.00 0.00 0.00 0.01 0.01 0.01 0.01 0.02 0.02
0.04 0.04 0.03 0.03 0.04 0.03 0.02 0.03 0.04 0.05 0.06 0.06 0.05 0.03 0.02 0.01 0.02 0.02 0.01 0.01 0.00 0.00 0.00 0.01 0.01 0.01 0.01 0.03 0.05 0.06 0.05 0.03 0.01 0.00 0.00 0.00 0.00 0.01 0.01 0.01 0.01 0.02 0.02
0.05 0.05 0.04 0.05 0.05 0.04 0.03 0.04 0.05 0.06 0.07 0.07 0.06 0.04 0.02 0.01 0.01 0.01 0.01 0.01 0.01 0.01 0.01 0.01 0.01 0.01 0.01 0.01 0.02 0.03 0.04 0.04 0.03 0.01 0.01 0.00 0.01 0.01 0.02 0.02 0.03 0.04 0.05
0.08 0.06 0.06 0.06 0.07 0.06 0.04 0.04 0.04 0.04 0.05 0.07 0.07 0.06 0.05 0.04 0.02 0.02 0.01 0.01 0.01 0.01 0.01 0.01 0.01 0.02 0.01 0.01 0.01 0.02 0.03 0.04 0.04 0.03 0.02 0.01 0.01 0.02 0.03 0.04 0.06 0.07 0.06
0.12 0.09 0.07 0.06 0.06 0.06 0.05 0.04 0.04 0.04 0.03 0.04 0.05 0.06 0.06 0.05 0.03 0.03 0.02 0.01 0.02 0.01 0.01 0.01 0.01 0.01 0.01 0.01 0.00 0.00 0.01 0.03 0.04 0.03 0.02 0.02 0.02 0.02 0.03 0.04 0.05 0.04 0.03
0.16 0.14 0.13 0.10 0.07 0.06 0.05 0.05 0.05 0.04 0.04 0.04 0.04 0.05 0.04 0.03 0.02 0.01 0.01 0.01 0.01 0.01 0.02 0.02 0.02 0.02 0.01 0.01 0.00 0.00 0.00 0.01 0.03 0.03 0.03 0.04 0.04 0.03 0.03 0.04 0.03 0.03 0.03
0.18 0.19 0.19 0.17 0.12 0.09 0.07 0.06 0.06 0.05 0.04 0.04 0.05 0.04 0.03 0.03 0.02 0.02 0.01 0.01 0.01 0.01 0.01 0.01 0.02 0.02 0.02 0.02 0.02 0.01 0.00 0.00 0.01 0.03 0.04 0.04 0.04 0.04 0.05 0.04 0.03 0.03 0.02
0.14 0.14 0.16 0.18 0.16 0.12 0.09 0.08 0.08 0.07 0.06 0.05 0.04 0.03 0.03 0.02 0.02 0.02 0.01 0.01 0.01 0.02 0.02 0.01 0.01 0.02 0.02 0.02 0.02 0.02 0.01 0.01 0.01 0.02 0.03 0.03 0.03 0.04 0.04 0.04 0.04 0.04 0.03
0.14 0.12 0.12 0.13 0.14 0.11 0.09 0.08 0.08 0.06 0.06 0.05 0.04 0.03 0.02 0.02 0.02 0.01 0.01 0.01 0.01 0.02 0.03 0.03 0.02 0.02 0.01 0.01 0.02 0.02 0.02 0.01 0.01 0.02 0.02 0.02 0.03 0.03 0.03 0.03 0.03 0.03 0.03
0.12 0.11 0.10 0.09 0.10 0.11 0.10 0.08 0.08 0.07 0.07 0.06 0.05 0.04 0.03 0.02 0.01 0.01 0.01 0.01 0.01 0.01 0.02 0.03 0.03 0.03 0.02 0.02 0.02 0.02 0.02 0.02 0.01 0.02 0.02 0.02 0.02 0.02 0.02 0.02 0.02 0.02 0.02
0.09 0.10 0.10 0.09 0.08 0.09 0.09 0.08 0.07 0.06 0.06 0.07 0.06 0.05 0.04 0.03 0.03 0.02 0.01 0.01 0.01 0.01 0.01 0.01 0.02 0.03 0.03 0.03 0.03 0.03 0.03 0.03 0.03 0.03 0.03 0.02 0.01 0.01 0.02 0.02 0.01 0.01 0.01
0.08 0.08 0.09 0.09 0.09 0.09 0.10 0.09 0.07 0.05 0.05 0.04 0.05 0.05 0.05 0.04 0.04 0.03 0.02 0.01 0.01 0.01 0.01 0.01 0.01 0.02 0.03 0.03 0.03 0.04 0.04 0.05 0.05 0.05 0.04 0.03 0.02 0.01 0.01 0.01 0.01 0.01 0.01
0.13 0.10 0.09 0.09 0.09 0.10 0.10 0.10 0.09 0.07 0.05 0.04 0.03 0.03 0.04 0.04 0.04 0.03 0.03 0.03 0.02 0.02 0.01 0.01 0.01 0.01 0.02 0.03 0.03 0.03 0.03 0.04 0.05 0.05 0.04 0.03 0.02 0.02 0.01 0.01 0.01 0.01 0.01
0.12 0.12 0.11 0.10 0.09 0.10 0.12 0.12 0.11 0.09 0.07 0.05 0.04 0.04 0.04 0.04 0.04 0.05 0.05 0.05 0.04 0.03 0.02 0.01 0.02 0.02 0.02 0.02 0.02 0.02 0.02 0.02 0.03 0.03 0.03 0.03 0.03 0.02 0.01 0.01 0.01 0.01 0.01
0.10 0.13 0.11 0.10 0.10 0.10 0.11 0.12 0.13 0.13 0.12 0.09 0.06 0.04 0.04 0.04 0.04 0.04 0.04 0.04 0.04 0.03 0.02 0.02 0.02 0.02 0.02 0.02 0.02 0.02 0.02 0.02 0.02 0.02 0.02 0.02 0.03 0.03 0.03 0.02 0.02 0.02 0.02
0.07 0.09 0.10 0.09 0.10 0.10 0.10 0.10 0.10 0.11 0.11 0.11 0.08 0.06 0.04 0.03 0.03 0.03 0.03 0.03 0.03 0.03 0.03 0.03 0.02 0.02 0.02 0.02 0.02 0.02 0.02 0.01 0.01 0.01 0.01 0.01 0.01 0.02 0.02 0.02 0.02 0.01 0.02
0.04 0.06 0.08 0.09 0.09 0.08 0.09 0.09 0.08 0.08 0.09 0.10 0.10 0.07 0.05 0.04 0.04 0.04 0.04 0.04 0.04 0.04 0.04 0.04 0.03 0.03 0.03 0.02 0.02 0.02 0.02 0.02 0.01 0.01 0.01 0.01 0.01 0.01 0.01 0.02 0.02 0.01 0.01
0.04 0.05 0.05 0.07 0.07 0.07 0.08 0.08 0.08 0.08 0.07 0.07 0.08 0.08 0.06 0.05 0.05 0.05 0.05 0.04 0.04 0.04 0.04 0.04 0.04 0.04 0.03 0.03 0.02 0.02 0.02 0.02 0.02 0.01 0.01 0.01 0.00 0.00 0.00 0.01 0.01 0.01 0.01
0.05 0.05 0.05 0.05 0.06 0.06 0.06 0.06 0.06 0.07 0.07 0.07 0.06 0.07 0.06 0.05 0.04 0.03 0.03 0.04 0.03 0.03 0.03 0.03 0.03 0.03 0.03 0.02 0.02 0.02 0.02 0.02 0.02 0.02 0.01 0.01 0.01 0.00 0.00 0.00 0.01 0.01 0.01
0.06 0.05 0.04 0.04 0.04 0.05 0.06 0.05 0.05 0.05 0.05 0.05 0.05 0.06 0.06 0.06 0.05 0.04 0.03 0.03 0.02 0.02 0.02 0.02 0.02 0.03 0.03 0.03 0.03 0.02 0.02 0.02 0.02 0.01 0.01 0.01 0.01 0.00 0.00 0.00 0.00 0.00 0.01
0.05 0.05 0.05 0.06 0.05 0.04 0.04 0.04 0.04 0.04 0.03 0.03 0.03 0.04 0.04 0.05 0.05 0.06 0.04 0.03 0.02 0.02 0.02 0.02 0.02 0.02 0.02 0.03 0.03 0.03 0.03 0.02 0.02 0.01 0.01 0.01 0.01 0.01 0.00 0.00 0.00 0.00 0.00
0.04 0.04 0.05 0.05 0.04 0.03 0.03 0.04 0.05 0.05 0.04 0.03 0.03 0.02 0.03 0.04 0.04 0.05 0.04 0.04 0.03 0.02 0.02 0.02 0.02 0.02 0.02 0.02 0.02 0.02 0.02 0.03 0.02 0.02 0.01 0.01 0.01 0.01 0.01 0.01 0.00 0.00 0.00
MSLP
1017.12 1016.81 1016.52 1016.28 1016.08 1015.91 1015.75 1015.57 1015.35 1015.09 1014.80 1014.48 1014.18 1013.91 1013.70 1013.57 1013.51 1013.51 1013.57 1013.67 1013.80 1013.97 1014.17 1014.41 1014.71 1015.08 1015.50 1015.97 1016.47 1016.99 1017.51 1018.02 1018.51 1018.99 1019.47 1019.93 1020.38 1020.81 1021.22 1021.59 1021.91 1022.18 1022.42
1017.02 1016.65 1016.32 1016.05 1015.84 1015.68 1015.53 1015.38 1015.19 1014.95 1014.66 1014.34 1014.02 1013.72 1013.47 1013.28 1013.18 1013.14 1013.17 1013.25 1013.37 1013.52 1013.72 1013.96 1014.25 1014.60 1015.00 1015.45 1015.94 1016.45 1016.98 1017.51 1018.05 1018.58 1019.12 1019.66 1020.19 1020.71 1021.19 1021.62 1022.00 1022.32 1022.60
1016.91 1016.49 1016.12 1015.83 1015.60 1015.43 1015.30 1015.16 1014.99 1014.77 1014.49 1014.18 1013.84 1013.51 1013.23 1013.01 1012.86 1012.79 1012.78 1012.83 1012.93 1013.08 1013.26 1013.49 1013.77 1014.10 1014.48 1014.91 1015.38 1015.89 1016.41 1016.96 1017.53 1018.12 1018.71 1019.32 1019.92 1020.50 1021.05 1021.55 1021.99 1022.37 1022.69
1016.88 1016.40 1015.99 1015.65 1015.40 1015.22 1015.08 1014.95 1014.78 1014.57 1014.30 1013.98 1013.64 1013.29 1012.98 1012.72 1012.54 1012.42 1012.38 1012.40 1012.48 1012.61 1012.78 1012.99 1013.26 1013.58 1013.94 1014.35 1014.81 1015.31 1015.84 1016.40 1016.99 1017.61 1018.24 1018.90 1019.55 1020.18 1020.78 1021.33 1021.83 1022.26 1022.63
1016.96 1016.43 1015.95 1015.57 1015.27 1015.05 1014.88 1014.73 1014.56 1014.35 1014.07 1013.75 1013.40 1013.04 1012.71 1012.42 1012.19 1012.04 1011.96 1011.94 1011.99 1012.09 1012.24 1012.44 1012.69 1013.00 1013.36 1013.76 1014.22 1014.71 1015.25 1015.82 1016.43 1017.06 1017.72 1018.40 1019.08 1019.74 1020.38 1020.96 1021.50 1021.97 1022.40
1017.19 1016.58 1016.04 1015.59 1015.22 1014.95 1014.73 1014.53 1014.33 1014.10 1013.82 1013.49 1013.13 1012.76 1012.41 1012.09 1011.83 1011.63 1011.51 1011.45 1011.45 1011.52 1011.64 1011.82 1012.07 1012.37 1012.72 1013.13 1013.59 1014.09 1014.64 1015.22 1015.84 1016.49 1017.16 1017.85 1018.54 1019.21 1019.86 1020.46 1021.02 1021.53 1021.99
1017.56 1016.87 1016.25 1015.71 1015.26 1014.90 1014.60 1014.35 1014.10 1013.83 1013.52 1013.18 1012.82 1012.44 1012.08 1011.74 1011.45 1011.21 1011.04 1010.93 1010.89 1010.91 1011.00 1011.16 1011.39 1011.68 1012.04 1012.45 1012.92 1013.44 1014.00 1014.60 1015.23 1015.90 1016.57 1017.26 1017.95 1018.62 1019.27 1019.88 1020.45 1020.98 1021.47
1018.04 1017.27 1016.56 1015.92 1015.37 1014.91 1014.52 1014.18 1013.86 1013.54 1013.20 1012.84 1012.47 1012.09 1011.72 1011.37 1011.05 1010.79 1010.57 1010.42 1010.33 1010.31 1010.36 1010.49 1010.69 1010.97 1011.32 1011.74 1012.21 1012.74 1013.32 1013.94 1014.59 1015.27 1015.96 1016.65 1017.34 1018.01 1018.66 1019.28 1019.86 1020.40 1020.92
1018.59 1017.74 1016.94 1016.20 1015.54 1014.97 1014.47 1014.03 1013.62 1013.23 1012.85 1012.47 1012.08 1011.70 1011.33 1010.98 1010.66 1010.38 1010.14 1009.96 1009.83 1009.77 1009.78 1009.86 1010.03 1010.27 1010.60 1011.00 1011.47 1012.00 1012.59 1013.23 1013.90 1014.60 1015.31 1016.03 1016.74 1017.42 1018.08 1018.71 1019.30 1019.87 1020.40
1019.12 1018.21 1017.34 1016.51 1015.75 1015.07 1014.45 1013.90 1013.39 1012.92 1012.47 1012.05 1011.65 1011.27 1010.91 1010.58 1010.27 1009.99 1009.75 1009.55 1009.41 1009.31 1009.28 1009.32 1009.44 1009.64 1009.92 1010.29 1010.73 1011.24 1011.83 1012.47 1013.16 1013.89 1014.64 1015.39 1016.14 1016.86 1017.56 1018.21 1018.83 1019.42 1019.98
1019.57 1018.64 1017.71 1016.82 1015.98 1015.19 1014.46 1013.78 1013.16 1012.59 1012.07 1011.60 1011.18 1010.79 1010.44 1010.14 1009.86 1009.61 1009.40 1009.22 1009.07 1008.97 1008.91 1008.91 1008.98 1009.12 1009.34 1009.64 1010.03 1010.50 1011.06 1011.69 1012.40 1013.16 1013.95 1014.76 1015.56 1016.34 1017.09 1017.80 1018.46 1019.09 1019.68
1019.90 1018.96 1018.02 1017.09 1016.19 1015.31 1014.46 1013.67 1012.93 1012.25 1011.64 1011.11 1010.64 1010.25 1009.91 1009.64 1009.40 1009.21 1009.05 1008.92 1008.81 1008.72 1008.66 1008.64 1008.67 1008.74 1008.89 1009.11 1009.42 1009.83 1010.34 1010.95 1011.66 1012.44 1013.27 1014.14 1015.02 1015.87 1016.69 1017.46 1018.19 1018.86 1019.50
1020.04 1019.15 1018.23 1017.29 1016.34 1015.39 1014.46 1013.55 1012.69 1011.90 1011.19 1010.57 1010.05 1009.63 1009.30 1009.05 1008.87 1008.75 1008.67 1008.61 1008.56 1008.53 1008.50 1008.48 1008.48 1008.51 1008.59 1008.73 1008.96 1009.29 1009.74 1010.31 1011.01 1011.80 1012.68 1013.60 1014.55 1015.48 1016.37 1017.22 1018.01 1018.75 1019.43
1019.99 1019.16 1018.29 1017.37 1016.41 1015.42 1014.41 1013.40 1012.43 1011.53 1010.71 1010.00 1009.41 1008.95 1008.60 1008.37 1008.24 1008.19 1008.19 1008.22 1008.27 1008.32 1008.36 1008.38 1008.39 1008.40 1008.44 1008.52 1008.68 1008.95 1009.34 1009.87 1010.54 1011.34 1012.25 1013.22 1014.22 1015.22 1016.18 1017.09 1017.94 1018.73 1019.46
1019.75 1018.99 1018.18 1017.30 1016.35 1015.34 1014.29 1013.21 1012.15 1011.15 1010.23 1009.42 1008.75 1008.22 1007.84 1007.61 1007.50 1007.50 1007.58 1007.72 1007.87 1008.03 1008.17 1008.27 1008.34 1008.39 1008.43 1008.50 1008.63 1008.85 1009.21 1009.71 1010.37 1011.17 1012.08 1013.08 1014.12 1015.17 1016.18 1017.13 1018.01 1018.84 1019.60
1019.31 1018.64 1017.89 1017.07 1016.15 1015.15 1014.08 1012.97 1011.85 1010.76 1009.75 1008.85 1008.09 1007.48 1007.05 1006.78 1006.67 1006.69 1006.83 1007.06 1007.32 1007.60 1007.87 1008.10 1008.27 1008.41 1008.52 1008.63 1008.79 1009.03 1009.39 1009.89 1010.55 1011.35 1012.28 1013.29 1014.34 1015.39 1016.41 1017.37 1018.27 1019.09 1019.86
1018.72 1018.11 1017.42 1016.65 1015.79 1014.82 1013.76 1012.65 1011.51 1010.38 1009.31 1008.33 1007.48 1006.79 1006.27 1005.93 1005.77 1005.79 1005.95 1006.24 1006.60 1007.00 1007.41 1007.79 1008.12 1008.41 1008.65 1008.88 1009.14 1009.45 1009.87 1010.42 1011.11 1011.94 1012.87 1013.88 1014.92 1015.96 1016.95 1017.87 1018.73 1019.51 1020.24
1018.01 1017.43 1016.79 1016.07 1015.25 1014.34 1013.34 1012.26 1011.14 1010.01 1008.91 1007.88 1006.95 1006.16 1005.54 1005.10 1004.86 1004.83 1004.98 1005.29 1005.72 1006.24 1006.79 1007.34 1007.87 1008.34 1008.78 1009.19 1009.60 1010.07 1010.60 1011.24 1012.00 1012.87 1013.82 1014.83 1015.84 1016.83 1017.76 1018.62 1019.39 1020.10 1020.75
1017.21 1016.63 1016.01 1015.33 1014.57 1013.73 1012.80 1011.80 1010.74 1009.64 1008.55 1007.48 1006.49 1005.61 1004.88 1004.32 1003.98 1003.86 1003.96 1004.27 1004.74 1005.35 1006.03 1006.76 1007.48 1008.18 1008.84 1009.47 1010.11 1010.76 1011.46 1012.23 1013.09 1014.02 1015.01 1016.01 1016.99 1017.93 1018.78 1019.54 1020.21 1020.81 1021.35
1016.35 1015.75 1015.13 1014.47 1013.77 1013.00 1012.16 1011.26 1010.28 1009.25 1008.18 1007.11 1006.08 1005.11 1004.27 1003.60 1003.14 1002.92 1002.95 1003.22 1003.71 1004.39 1005.19 1006.07 1006.99 1007.91 1008.81 1009.68 1010.55 1011.41 1012.30 1013.23 1014.21 1015.23 1016.26 1017.27 1018.23 1019.10 1019.87 1020.53 1021.09 1021.56 1021.99
1015.47 1014.82 1014.18 1013.54 1012.88 1012.18 1011.44 1010.63 1009.75 1008.79 1007.77 1006.71 1005.64 1004.62 1003.69 1002.91 1002.34 1002.02 1001.98 1002.21 1002.71 1003.43 1004.33 1005.35 1006.44 1007.56 1008.67 1009.77 1010.85 1011.92 1012.99 1014.08 1015.18 1016.29 1017.37 1018.40 1019.34 1020.18 1020.88 1021.46 1021.92 1022.29 1022.60
1014.56 1013.86 1013.19 1012.55 1011.93 1011.29 1010.63 1009.90 1009.11 1008.22 1007.24 1006.20 1005.12 1004.05 1003.06 1002.21 1001.56 1001.17 1001.08 1001.29 1001.79 1002.56 1003.53 1004.66 1005.89 1007.16 1008.45 1009.72 1010.97 1012.21 1013.43 1014.65 1015.86 1017.04 1018.17 1019.23 1020.18 1021.00 1021.67 1022.20 1022.59 1022.88 1023.12
1013.63 1012.88 1012.19 1011.55 1010.95 1010.35 1009.74 1009.08 1008.34 1007.50 1006.55 1005.52 1004.44 1003.36 1002.34 1001.46 1000.78 1000.38 1000.28 1000.50 1001.03 1001.84 1002.88 1004.10 1005.42 1006.79 1008.19 1009.57 1010.93 1012.27 1013.59 1014.89 1016.17 1017.40 1018.58 1019.67 1020.64 1021.47 1022.15 1022.67 1023.04 1023.31 1023.50
1012.67 1011.90 1011.20 1010.56 1009.96 1009.39 1008.80 1008.15 1007.43 1006.61 1005.68 1004.66 1003.58 1002.51 1001.51 1000.65 1000.01 999.65 999.61 999.89 1000.49 1001.37 1002.47 1003.74 1005.11 1006.54 1007.98 1009.40 1010.80 1012.16 1013.51 1014.83 1016.13 1017.39 1018.59 1019.70 1020.71 1021.57 1022.29 1022.84 1023.26 1023.55 1023.76
1011.67 1010.90 1010.20 1009.57 1008.98 1008.40 1007.81 1007.15 1006.42 1005.58 1004.64 1003.62 1002.56 1001.53 1000.59 999.82 999.28 999.03 999.11 999.51 1000.21 1001.17 1002.35 1003.66 1005.06 1006.49 1007.91 1009.31 1010.67 1012.00 1013.30 1014.59 1015.86 1017.10 1018.31 1019.44 1020.47 1021.39 1022.17 1022.80 1023.28 1023.65 1023.92
1010.61 1009.87 1009.20 1008.59 1008.00 1007.41 1006.79 1006.10 1005.32 1004.45 1003.49 1002.48 1001.46 1000.50 999.67 999.03 998.65 998.58 998.82 999.38 1000.22 1001.30 1002.54 1003.90 1005.30 1006.70 1008.07 1009.39 1010.67 1011.91 1013.13 1014.34 1015.54 1016.74 1017.92 1019.05 1020.11 1021.07 1021.91 1022.63 1023.21 1023.67 1024.02
Thickness
5649 5650 5651 5652 5653 5653 5653 5653 5653 5653 5653 5653 5653 5654 5654 5655 5655 5655 5656 5656 5657 5657 5658 5657 5657 5656 5655 5655 5654 5653 5652 5651 5650 5649 5648 5646 5645 5644 5643 5641 5640 5638 5637
5642 5643 5644 5645 5646 5647 5647 5647 5647 5647 5646 5647 5647 5647 5648 5648 5649 5650 5650 5650 5651 5651 5652 5652 5651 5651 5650 5650 5649 5648 5647 5646 5645 5644 5642 5641 5640 5639 5637 5636 5635 5633 5632
5635 5636 5637 5638 5639 5640 5640 5640 5640 5640 5640 5640 5640 5641 5642 5642 5643 5643 5644 5644 5644 5645 5645 5646 5646 5645 5645 5645 5644 5643 5642 5640 5639 5638 5637 5636 5634 5633 5632 5631 5629 5628 5626
5628 5629 5630 5631 5632 5633 5633 5633 5633 5633 5633 5633 5633 5634 5635 5636 5636 5637 5638 5638 5639 5639 5639 5639 5640 5640 5639 5639 5639 5638 5636 5635 5634 5632 5631 5630 5629 5628 5626 5625 5623 5622 5620
5620 5621 5623 5624 5625 5626 5626 5627 5626 5627 5626 5626 5626 5627 5628 5629 5630 5631 5631 5632 5633 5633 5633 5633 5633 5634 5634 5634 5633 5632 5631 5630 5628 5627 5626 5625 5624 5622 5621 5620 5618 5617 5615
5611 5613 5615 5616 5617 5618 5619 5620 5619 5620 5620 5620 5620 5619 5620 5621 5623 5624 5625 5626 5626 5627 5627 5627 5627 5627 5628 5628 5627 5627 5626 5624 5623 5622 5621 5620 5619 5617 5616 5615 5613 5612 5610
5602 5604 5606 5607 5609 5611 5612 5613 5613 5612 5612 5613 5612 5611 5611 5613 5615 5616 5618 5619 5619 5620 5620 5621 5621 5621 5621 5622 5621 5621 5620 5619 5618 5617 5616 5615 5614 5612 5611 5610 5608 5606 5604
5593 5595 5597 5599 5601 5602 5603 5605 5606 5605 5605 5607 5607 5605 5603 5604 5606 5609 5610 5612 5612 5613 5614 5614 5614 5615 5615 5615 5615 5615 5614 5614 5613 5612 5611 5610 5609 5607 5606 5604 5603 5601 5598
5584 5587 5588 5590 5592 5594 5595 5597 5599 5600 5599 5599 5601 5602 5599 5599 5598 5601 5603 5604 5605 5606 5607 5608 5608 5608 5609 5609 5608 5608 5608 5608 5607 5606 5606 5604 5603 5602 5600 5599 5597 5595 5592
5574 5577 5579 5581 5584 5586 5587 5589 5591 5593 5594 5593 5593 5595 5596 5596 5594 5593 5595 5597 5598 5600 5601 5601 5602 5602 5602 5602 5602 5602 5602 5602 5601 5601 5600 5599 5598 5596 5595 5593 5591 5589 5586
5563 5567 5570 5572 5575 5577 5579 5581 5582 5585 5587 5588 5588 5587 5587 5587 5589 5589 5588 5589 5591 5593 5594 5595 5596 5596 5596 5596 5597 5597 5596 5596 5595 5595 5594 5593 5592 5590 5589 5587 5585 5582 5580
5552 5556 5559 5562 5565 5568 5571 5573 5575 5576 5579 5581 5582 5582 5583 5583 5582 5582 5582 5582 5583 5585 5587 5588 5589 5590 5590 5591 5591 5590 5590 5590 5589 5588 5587 5586 5585 5583 5582 5580 5578 5576 5574
5540 5544 5548 5552 5555 5559 5562 5564 5566 5568 5571 5574 5575 5576 5577 5579 5579 5578 5578 5576 5576 5576 5578 5580 5582 5584 5584 5585 5584 5584 5583 5583 5582 5581 5581 5579 5578 5576 5574 5573 5571 5569 5566
5528 5533 5537 5542 5545 5549 5552 5555 5558 5560 5563 5566 5568 5569 5570 5571 5573 5574 5573 5571 5568 5568 5570 5573 5575 5576 5577 5578 5578 5577 5576 5576 5575 5574 5573 5572 5570 5568 5566 5564 5563 5560 5558
5515 5520 5526 5531 5535 5539 5542 5546 5549 5552 5555 5558 5560 5561 5563 5564 5565 5567 5568 5568 5566 5564 5565 5566 5567 5569 5569 5570 5570 5570 5569 5568 5568 5567 5565 5563 5562 5560 5558 5556 5554 5552 5550
5502 5508 5514 5520 5524 5529 5533 5536 5540 5543 5546 5549 5551 5553 5555 5556 5558 5559 5560 5561 5561 5561 5559 5560 5559 5560 5561 5562 5562 5562 5561 5560 5559 5558 5557 5555 5554 5552 5550 5548 5546 5544 5541
5490 5496 5502 5508 5513 5518 5522 5526 5530 5534 5537 5540 5542 5544 5547 5548 5550 5550 5551 5552 5553 5553 5552 5551 5550 5551 5552 5552 5552 5553 5552 5552 5551 5550 5548 5546 5545 5544 5541 5539 5537 5535 5532
5477 5483 5490 5496 5501 5506 5511 5516 5520 5524 5528 5530 5533 5535 5537 5539 5541 5542 5543 5544 5545 5545 5545 5543 5542 5541 5542 5543 5543 5543 5543 5543 5542 5541 5539 5538 5536 5534 5532 5530 5527 5525 5522
5464 5471 5478 5483 5489 5494 5499 5504 5509 5514 5517 5520 5523 5526 5528 5529 5531 5533 5535 5536 5536 5537 5537 5536 5534 5533 5532 5532 5532 5532 5532 5532 5532 5531 5530 5529 5527 5525 5523 5520 5518 5515 5513
5452 5458 5465 5470 5475 5481 5487 5492 5497 5503 5507 5509 5512 5516 5519 5521 5523 5524 5526 5527 5527 5527 5527 5527 5525 5523 5522 5522 5522 5521 5521 5520 5520 5520 5519 5518 5517 5515 5513 5511 5508 5505 5503
5439 5445 5451 5457 5463 5468 5474 5480 5486 5490 5495 5498 5501 5505 5508 5512 5514 5515 5517 5517 5518 5518 5517 5517 5515 5514 5513 5512 5512 5511 5510 5509 5509 5508 5508 5507 5506 5504 5502 5500 5497 5494 5492
5426 5433 5439 5444 5450 5456 5462 5467 5473 5478 5482 5486 5490 5493 5497 5500 5502 5504 5506 5508 5509 5509 5509 5508 5507 5506 5505 5504 5503 5501 5500 5498 5498 5497 5496 5495 5494 5493 5491 5489 5487 5484 5481
5413 5419 5425 5431 5437 5444 5449 5453 5459 5464 5469 5474 5478 5482 5486 5489 5491 5493 5495 5496 5498 5500 5501 5501 5499 5499 5497 5496 5494 5491 5490 5489 5489 5487 5484 5484 5482 5481 5480 5478 5476 5474 5470
5400 5406 5412 5418 5425 5431 5436 5440 5445 5450 5456 5461 5466 5471 5475 5477 5480 5483 5484 5484 5486 5487 5489 5490 5491 5490 5488 5487 5486 5484 5481 5477 5475 5474 5473 5471 5470 5469 5469 5467 5465 5462 5459
5387 5393 5399 5405 5411 5417 5423 5428 5432 5437 5443 5449 5454 5458 5462 5466 5469 5471 5472 5473 5474 5475 5476 5478 5478 5478 5477 5476 5474 5471 5468 5465 5464 5462 5460 5459 5458 5457 5456 5456 5454 5451 5447
5374 5379 5385 5391 5397 5404 5409 5415 5419 5425 5431 5436 5441 5446 5450 5453 5456 5458 5460 5462 5463 5464 5464 5464 5464 5464 5464 5463 5462 5461 5459 5455 5452 5450 5449 5447 5445 5443 5443 5443 5441 5438 5435